Flag for Germany Weather past 2 weeks in Filderstadt, Baden-Württemberg, Germany

Now
65 °F

Light rain. Low clouds.


Feels Like: 65 °F
Forecast: 60 / 72 °F
Wind: 1 mph from West

Location: Stuttgart-Echterdingen

Current Time: Jul 29, 2014 at 10:30:56 PM

Latest Report: Jul 29, 2014 at 10:00 PM


Visibility: 8 mi

Pressure: 29.78 "Hg

Humidity: 93%

Dew point: 63 °F

Location of FilderstadtLocation

Historic Weather in Filderstadt — Graph

°F

Filderstadt temperature yesterday

Maximum temperature yesterday: 79 °F (at 6:00 PM)
Minimum temperature yesterday: 60 °F (at 6:00 AM)
Average temperature yesterday: 70 °F

Past Weeks' High & Low Weather Summary

 TemperatureHumidityPressure
High91 °F (Jul 19, 4:00 PM)100% (Jul 23, 6:00 AM)30.20 "Hg (Jul 23, 6:00 AM)
Low56 °F (Jul 16, 6:00 AM)25% (Jul 18, 3:00 PM)29.72 "Hg (Jul 28, 6:00 PM)
Average69 °F71%29.95 "Hg
* Reported Jul 14 9:00 PM — Jul 29 9:00 PM, Filderstadt, Weather by CustomWeather, © 2014

Note: Actual official high and low records may vary slightly from our data, if they occured in-between our weather recording intervals... More about our weather records

Advertising

Filderstadt weather history for previous 24 hours

 ConditionsComfort  
Time TempWeatherWind HumidityBarometerVisibility
9:00 PM
Jul 29
66 °FSprinkles. Overcast.1 mph91%29.77 "Hg11 mi
8:00 PM67 °FSprinkles. Overcast.2 mph88%29.76 "Hg16 mi
7:00 PM68 °FOvercast.2 mph83%29.75 "Hg16 mi
6:00 PM67 °FOvercast.2 mph84%29.75 "Hg17 mi
4:00 PM67 °FOvercast.1 mph82%29.75 "Hg12 mi
3:00 PM67 °FLow clouds.1 mph84%29.76 "Hg9 mi
2:00 PM64 °FLow clouds.2 mph91%29.79 "Hg7 mi
1:00 PM64 °FLow clouds.3 mph93%29.80 "Hg7 mi
12:00 PM64 °FLow clouds.3 mph92%29.79 "Hg7 mi
11:00 AM63 °FRain. Low clouds.1 mph94%29.79 "Hg4 mi
10:00 AM63 °FLow clouds.1 mph95%29.80 "Hg4 mi
9:00 AM62 °FDrizzle. Low clouds.1 mph97%29.80 "Hg2 mi
8:00 AM61 °FDrizzle. Low clouds.1 mph96%29.79 "Hg2 mi
7:00 AM62 °FLow clouds.1 mph95%29.78 "Hg7 mi
6:00 AM61 °FLow clouds.1 mph95%29.79 "Hg10 mi
5:00 AM61 °FLight rain. Low clouds.1 mph96%29.80 "Hg11 mi
4:00 AM61 °FLow clouds.2 mph97%29.80 "Hg12 mi
3:00 AM61 °FLight rain. Low clouds.1 mph98%29.82 "Hg6 mi
2:00 AM61 °FHeavy rain. Overcast.1 mph98%29.82 "Hg4 mi
1:00 AM61 °FHeavy rain. Overcast.2 mph96%29.84 "Hg5 mi
12:00 AM62 °FLight rain. Overcast.1 mph94%29.82 "Hg11 mi
10:00 PM
Jul 28
62 °FThundershowers. Low clouds.9 mph95%29.83 "Hg4 mi
Weather by CustomWeather, © 2014

See weather overviewHow to use our weather pages